FW7072 Weather Reports


Display with metric or nautical units.
time (UTC)temp
F
wind
direction
speed
MPH
gust
MPH
rain 1hr
in
rain 24hr
in
rain mn
in
humidity
%
barometer
mb
20260504200308 76 355 1.0 1.0 0.00 0.02 0.02 50 1013.9
20260504195803 75 340 5.0 7.0 0.00 0.02 0.02 52 1014.0
20260504195300 76 330 1.0 1.0 0.00 0.02 0.02 51 1014.0
20260504194757 75 325 1.0 1.0 0.00 0.02 0.02 50 1014.0
20260504194253 74 328 1.0 2.0 0.00 0.02 0.02 51 1014.2
20260504193749 75 333 2.0 2.0 0.00 0.02 0.02 52 1014.2
20260504193247 75 334 2.0 2.0 0.00 0.02 0.02 50 1014.4
20260504192745 75 321 3.0 3.0 0.00 0.02 0.02 51 1014.3
20260504192243 74 359 1.0 1.0 0.00 0.02 0.02 51 1014.5
20260504191741 73 4 1.0 2.0 0.00 0.02 0.02 52 1014.6
20260504191238 74 47 4.0 5.0 0.00 0.02 0.02 49 1014.5
20260504190733 74 312 1.0 1.0 0.00 0.02 0.02 51 1014.9
20260504190230 73 317 0.0 1.0 0.00 0.02 0.02 52 1014.9
20260504185726 73 54 2.0 5.0 0.00 0.02 0.02 50 1014.8
20260504185223 73 297 1.0 2.0 0.00 0.02 0.02 51 1015.1
20260504184719 73 219 3.0 3.0 0.00 0.02 0.02 50 1015.1
20260504184215 73 321 3.0 3.0 0.00 0.02 0.02 53 1015.2
20260504183711 73 266 2.0 3.0 0.00 0.02 0.02 52 1015.2
20260504183208 72 311 1.0 1.0 0.00 0.02 0.02 53 1015.4
20260504182707 71 349 0.0 0.0 0.00 0.02 0.02 55 1015.4
20260504182203 72 322 3.0 5.0 0.00 0.02 0.02 51 1015.3
20260504181701 71 313 3.0 5.0 0.00 0.02 0.02 51 1015.7
20260504181158 71 336 4.0 5.0 0.00 0.02 0.02 56 1015.7
20260504180657 71 44 1.0 3.0 0.00 0.02 0.02 51 1015.7
20260504180155 70 323 6.0 6.0 0.00 0.02 0.02 55 1015.7
20260504175652 70 341 2.0 3.0 0.00 0.02 0.02 55 1015.9
20260504175149 71 30 2.0 5.0 0.00 0.02 0.02 54 1015.8
20260504174647 69 359 1.0 1.0 0.00 0.02 0.02 55 1015.9
20260504174144 69 115 2.0 3.0 0.00 0.02 0.02 55 1016.0
20260504173641 68 301 1.0 2.0 0.00 0.02 0.02 56 1016.0
20260504173138 68 73 2.0 2.0 0.00 0.02 0.02 57 1016.2
20260504172635 68 331 2.0 3.0 0.00 0.02 0.02 60 1016.1
20260504172131 68 346 5.0 7.0 0.00 0.02 0.02 61 1016.3
20260504171628 67 332 2.0 2.0 0.00 0.02 0.02 60 1016.2
20260504171125 67 189 2.0 3.0 0.00 0.02 0.02 60 1016.4
20260504170621 66 277 1.0 2.0 0.00 0.02 0.02 62 1016.6
20260504170119 66 39 1.0 2.0 0.00 0.02 0.02 62 1016.8
20260504151004 53 336 0.0 0.0 0.00 0.02 0.02 90 1018.6
20260504150501 54 334 0.0 0.0 0.05 0.02 0.02 89 1018.5
20260504140927 56 32 1.0 1.0 0.00 0.00 0.00 70 1019.7
20260504140424 54 339 0.0 0.0 0.00 0.00 0.00 76 1019.6
20260504130349 50 332 0.0 0.0 0.00 0.00 0.00 79 1019.0
20260504120312 46 351 1.0 1.0 0.00 0.00 0.00 87 1017.6
20260504110236 40 340 0.0 0.0 0.00 0.00 0.00 96 1017.6
20260504100159 40 333 0.0 0.0 0.00 0.00 0.00 94 1017.6
20260504090122 40 333 0.0 0.0 0.00 0.00 0.00 94 1017.6
20260504081552 40 336 0.0 0.0 0.00 0.00 0.00 93 1017.7
20260504081048 40 331 0.0 0.0 0.00 0.00 0.00 93 1017.7
20260504080545 40 328 0.0 0.0 0.00 0.00 0.00 93 1017.5
20260504050358 43 331 0.0 0.0 0.00 0.00 0.00 88 1017.6
20260504045855 43 332 0.0 0.0 0.00 0.00 0.00 87 1017.9
20260504045350 44 337 0.0 0.0 0.00 0.00 0.00 86 1018.0
20260504044847 44 339 0.0 0.0 0.00 0.00 0.00 86 1017.7
20260504044344 43 339 0.0 0.0 0.00 0.00 0.00 86 1017.9
20260504043842 44 332 0.0 0.0 0.00 0.00 0.00 85 1017.7
20260504043338 44 332 0.0 0.0 0.00 0.00 0.00 84 1017.9
20260504042836 45 338 0.0 0.0 0.00 0.00 0.00 83 1017.6
20260504042332 45 335 0.0 0.0 0.00 0.00 0.00 84 1017.9
20260504041828 45 339 0.0 0.0 0.00 0.00 0.00 83 1017.8
20260504041325 44 335 0.0 0.0 0.00 0.00 0.00 84 1017.6
20260504040821 45 331 0.0 0.0 0.00 0.00 0.00 84 1017.6
20260504040319 45 333 0.0 0.0 0.00 0.00 0.00 83 1017.7
20260504035814 45 339 0.0 0.0 0.00 0.00 0.00 82 1017.6
20260504035312 45 2 0.0 0.0 0.00 0.00 0.00 82 1017.7
20260504034809 46 335 0.0 0.0 0.00 0.00 0.00 82 1017.7
20260504034307 45 333 0.0 0.0 0.00 0.00 0.00 82 1017.7
20260504033803 46 333 0.0 0.0 0.00 0.00 0.00 81 1017.6
20260504033301 46 333 0.0 1.0 0.00 0.00 0.00 80 1017.7
20260504032758 46 338 0.0 0.0 0.00 0.00 0.00 80 1017.6
20260504032255 46 17 1.0 1.0 0.00 0.00 0.00 79 1017.7
20260504031751 47 356 0.0 0.0 0.00 0.00 0.00 79 1017.6
20260504031249 47 338 0.0 0.0 0.00 0.00 0.00 78 1017.4
20260504030744 47 350 0.0 0.0 0.00 0.00 0.00 79 1017.6
20260504030242 47 330 0.0 0.0 0.00 0.00 0.00 78 1017.4
20260504025738 47 339 0.0 0.0 0.00 0.00 0.00 77 1017.4
20260504025235 47 352 0.0 0.0 0.00 0.00 0.00 77 1017.5
20260504024732 48 358 0.0 0.0 0.00 0.00 0.00 77 1017.6
20260504024229 48 339 0.0 0.0 0.00 0.00 0.00 77 1017.2
20260504023726 48 345 0.0 0.0 0.00 0.00 0.00 76 1017.4
20260504023222 48 336 0.0 0.0 0.00 0.00 0.00 75 1017.6
20260504022718 48 331 0.0 0.0 0.00 0.00 0.00 75 1017.6
20260504022214 49 332 0.0 1.0 0.00 0.00 0.00 74 1017.4
20260504021712 49 335 0.0 0.0 0.00 0.00 0.00 73 1017.2
20260504021209 50 334 0.0 0.0 0.00 0.00 0.00 72 1017.3
20260504020706 50 344 0.0 0.0 0.00 0.00 0.00 71 1017.2
20260504020201 50 342 0.0 0.0 0.00 0.00 0.00 69 1017.1
20260504015658 51 332 0.0 1.0 0.00 0.00 0.00 69 1017.3
20260504015154 51 332 1.0 1.0 0.00 0.00 0.00 68 1017.3
20260504014650 51 350 0.0 1.0 0.00 0.00 0.00 67 1017.3
20260504014148 52 5 1.0 1.0 0.00 0.00 0.00 67 1016.9
20260504013645 52 333 0.0 0.0 0.00 0.00 0.00 66 1017.0
20260504013142 53 348 0.0 0.0 0.00 0.00 0.00 65 1017.0
20260504012639 54 345 0.0 0.0 0.00 0.00 0.00 61 1017.2
20260504012137 54 336 0.0 0.0 0.00 0.00 0.00 61 1016.9
20260504011633 54 341 0.0 0.0 0.00 0.00 0.00 60 1016.9
20260504011130 54 331 0.0 0.0 0.00 0.00 0.00 60 1017.1
20260504010626 55 340 0.0 0.0 0.00 0.00 0.00 58 1017.2
20260504010122 56 332 0.0 0.0 0.00 0.00 0.00 55 1017.3
20260504005619 56 332 0.0 0.0 0.00 0.00 0.00 53 1017.1
20260504005116 57 332 0.0 0.0 0.00 0.00 0.00 53 1016.9
20260504004614 57 330 0.0 0.0 0.00 0.00 0.00 51 1016.7
20260504004111 57 329 0.0 0.0 0.00 0.00 0.00 51 1016.8
20260504003607 58 330 0.0 0.0 0.00 0.00 0.00 50 1016.8
20260504003104 58 329 0.0 1.0 0.00 0.00 0.00 49 1016.7
20260504002601 59 339 0.0 1.0 0.00 0.00 0.00 49 1016.4
20260504002058 59 315 2.0 2.0 0.00 0.00 0.00 49 1016.4
20260504001556 59 327 1.0 1.0 0.00 0.00 0.00 48 1016.3
20260504001051 59 334 3.0 3.0 0.00 0.00 0.00 48 1016.3
20260504000549 59 333 1.0 1.0 0.00 0.00 0.00 47 1016.3
20260504000047 60 323 1.0 1.0 0.00 0.00 0.00 47 1016.7
20260503235545 60 333 2.0 2.0 0.00 0.00 0.00 47 1016.5
20260503235041 60 332 2.0 2.0 0.00 0.00 0.00 46 1016.8
20260503234538 60 344 4.0 5.0 0.00 0.00 0.00 45 1016.4
20260503234037 61 336 3.0 3.0 0.00 0.00 0.00 45 1016.6
20260503233533 61 320 2.0 2.0 0.00 0.00 0.00 44 1016.4
20260503233029 61 323 1.0 1.0 0.00 0.00 0.00 44 1016.5
20260503232526 61 327 1.0 2.0 0.00 0.00 0.00 44 1016.9
20260503232024 62 321 1.0 1.0 0.00 0.00 0.00 44 1016.7
20260503231521 62 337 1.0 2.0 0.00 0.00 0.00 43 1016.7
20260503231018 62 324 1.0 1.0 0.00 0.00 0.00 42 1016.8
20260503230514 62 327 4.0 5.0 0.00 0.00 0.00 42 1016.6
20260503230012 62 322 1.0 2.0 0.00 0.00 0.00 41 1016.7
20260503225509 62 311 3.0 5.0 0.00 0.00 0.00 41 1016.7
20260503225004 62 319 3.0 3.0 0.00 0.00 0.00 43 1016.8
20260503224501 62 332 3.0 5.0 0.00 0.00 0.00 42 1016.9
20260503223958 62 329 2.0 2.0 0.00 0.00 0.00 41 1017.1
20260503223451 63 355 3.0 5.0 0.00 0.00 0.00 41 1016.6
20260503222946 62 348 4.0 5.0 0.00 0.00 0.00 42 1016.8
20260503222445 63 333 3.0 3.0 0.00 0.00 0.00 42 1016.8
20260503221943 63 324 5.0 7.0 0.00 0.00 0.00 41 1016.8
20260503221441 63 318 5.0 6.0 0.00 0.00 0.00 40 1017.2
20260503220937 64 337 3.0 3.0 0.00 0.00 0.00 41 1017.1
20260503220433 64 330 3.0 7.0 0.00 0.00 0.00 41 1017.0
20260503215931 64 328 2.0 3.0 0.00 0.00 0.00 40 1017.1
20260503215428 64 311 2.0 2.0 0.00 0.00 0.00 39 1017.1
20260503214926 63 331 1.0 2.0 0.00 0.00 0.00 40 1017.1
20260503214423 64 322 1.0 1.0 0.00 0.00 0.00 40 1017.3
20260503213920 64 327 2.0 2.0 0.00 0.00 0.00 38 1017.2
20260503213418 64 336 3.0 3.0 0.00 0.00 0.00 39 1017.0
20260503212914 63 323 1.0 1.0 0.00 0.00 0.00 40 1017.2
20260503212412 64 324 0.0 1.0 0.00 0.00 0.00 39 1017.3
20260503211909 63 327 2.0 2.0 0.00 0.00 0.00 42 1017.5
20260503211406 64 357 5.0 5.0 0.00 0.00 0.00 41 1017.5
20260503210901 64 323 1.0 2.0 0.00 0.00 0.00 41 1017.5
20260503210359 64 306 2.0 2.0 0.00 0.00 0.00 41 1017.2
20260503205853 63 339 4.0 6.0 0.00 0.00 0.00 40 1017.5
20260503205350 64 346 0.0 1.0 0.00 0.00 0.00 39 1017.7
20260503204847 63 332 1.0 1.0 0.00 0.00 0.00 41 1017.8
20260503204344 64 335 2.0 2.0 0.00 0.00 0.00 41 1017.5
20260503203841 64 355 2.0 3.0 0.00 0.00 0.00 42 1017.8
20260503203338 64 333 3.0 5.0 0.00 0.00 0.00 40 1017.7
20260503202835 63 326 1.0 1.0 0.00 0.00 0.00 40 1017.7
20260503202333 63 325 5.0 9.0 0.00 0.00 0.00 39 1018.3
20260503201832 63 319 3.0 5.0 0.00 0.00 0.00 39 1018.3
20260503201328 64 311 0.0 1.0 0.00 0.00 0.00 38 1018.3
20260503200826 64 327 2.0 3.0 0.00 0.00 0.00 38 1018.4